Location: BGSU Observatory
(41.3799°N, 83.6397°W)
Time: 20:19:28
(UTC-04:00)

Amateur Radio Satellites - All Passes

Search period start: 25 October 2014 19:49
Search period end: 26 October 2014 19:49
Location: BGSU Observatory, 41.3799°N, 83.6397°W

Satellite Date Start Highest point End Downlink Frequencies (MHz)
Time Altitude Azimuth
OPAL 25 Oct 19:56:53 20:01:12 31° 295° (WNW) 20:05:29 ?
HO-68 25 Oct 20:00:19 20:05:10 20° 55° (NE) 20:10:01 435.675 MHz FM
STRAND 1 25 Oct 20:03:26 20:08:21 44° 99° (E) 20:13:14 ?
ISS 25 Oct 20:26:31 20:29:34 33° 223° (SW) 20:32:37 145.800 FM
KITSAT 1 25 Oct 20:48:46 20:56:06 36° 45° (NE) 21:03:23 435.175 FM
SO-67 25 Oct 21:05:44 21:06:32 11° 269° (W) 21:07:20 435.3500 MHz FM
RS-15 25 Oct 21:06:25 21:13:14 19° 99° (E) 21:19:59 29.354 - 29.394 USB, Beacon 29.352 USB
Oscar 11 25 Oct 21:12:02 21:13:56 13° 63° (ENE) 21:15:50 145.825 FM, Beacon 2401.500 USB
SO-50 25 Oct 21:25:24 21:29:37 29° 47° (NE) 21:33:52 436.795 FM
STRAND 1 25 Oct 21:43:13 21:47:15 24° 296° (WNW) 21:51:16 ?
HO-68 25 Oct 21:44:48 21:51:59 86° 254° (WSW) 21:59:13 435.675 MHz FM
ZACube-1 25 Oct 22:02:27 22:05:46 20° 66° (ENE) 22:09:04 437.345 MHz
UKube-1 25 Oct 22:04:40 22:08:54 52° 72° (ENE) 22:13:09 145.840 MHz, 145.915 MHz
KITSAT 1 25 Oct 22:44:00 22:51:54 60° 246° (WSW) 22:59:45 435.175 FM
UOSAT-12 25 Oct 22:44:15 22:47:38 19° 41° (NE) 22:50:59 437.025 FM, 437.400 FM
Oscar 11 25 Oct 22:45:18 22:49:35 63° 259° (W) 22:53:53 145.825 FM, Beacon 2401.500 USB
FUNcube-1 25 Oct 22:45:35 22:50:03 55° 74° (ENE) 22:54:28 145.950 - 145.970 MHz USB
SO-50 25 Oct 23:05:45 23:10:17 40° 244° (WSW) 23:14:50 436.795 FM
RS-15 25 Oct 23:12:47 23:23:48 83° 120° (ESE) 23:34:45 29.354 - 29.394 USB, Beacon 29.352 USB
HO-68 25 Oct 23:36:59 23:40:38 14° 272° (W) 23:44:18 435.675 MHz FM
ZACube-1 25 Oct 23:37:33 23:41:53 41° 262° (W) 23:46:11 437.345 MHz
UKube-1 25 Oct 23:43:05 23:45:23 14° 268° (W) 23:47:41 145.840 MHz, 145.915 MHz
MaSat-1 26 Oct 00:13:12 00:17:17 61° 113° (ESE) 00:20:59 437.345 MHz
UOSAT-12 26 Oct 00:23:34 00:28:15 67° 240° (WSW) 00:32:51 437.025 FM, 437.400 FM
FUNcube-1 26 Oct 00:24:11 00:26:43 15° 269° (W) 00:29:14 145.950 - 145.970 MHz USB
RS-15 26 Oct 01:27:48 01:37:27 34° 326° (NW) 01:47:12 29.354 - 29.394 USB, Beacon 29.352 USB
Oscar 10/S400 26 Oct 01:35:54 02:37:26 23° 240° (WSW) 05:18:30 145.825 - 145.975 CW/USB, Beacon 145.810 USB
MaSat-1 26 Oct 01:51:24 01:53:07 13° 307° (NW) 01:54:46 437.345 MHz
JAS-1B 26 Oct 02:12:21 02:18:02 26° 96° (E) 02:24:29 435.800 - 435.900 CW/SSB
Oscar 19 26 Oct 02:24:05 02:28:25 27° 95° (E) 02:32:43 437.125 CW, 437.150 USB
AO-27 26 Oct 02:45:32 02:49:01 18° 92° (E) 02:52:30 436.795 MHz FM
AO-Echo 26 Oct 02:55:13 02:59:53 30° 95° (E) 03:04:29 ?
Oscar 16 26 Oct 03:09:31 03:14:40 76° 103° (ESE) 03:19:46 437.025 USB, Beacon 2401.1428
Sapphire 26 Oct 03:14:14 03:17:14 15° 104° (ESE) 03:20:14 437.095 MHz 1200 baud AX-25 AFSK
Uribyol 2 26 Oct 03:31:24 03:36:29 50° 100° (E) 03:41:30 436.500 FM
PCSat 26 Oct 03:34:57 03:39:21 26° 108° (ESE) 03:43:47 145.825 MHz
ITAMSAT 1 26 Oct 03:37:43 03:42:52 55° 101° (E) 03:47:57 435.822 SSB
RS-15 26 Oct 03:46:53 03:54:31 20° 1° (N) 04:02:16 29.354 - 29.394 USB, Beacon 29.352 USB
JAS-1B 26 Oct 04:02:15 04:08:49 60° 289° (WNW) 04:16:40 435.800 - 435.900 CW/SSB
Oscar 19 26 Oct 04:03:09 04:07:48 36° 292° (WNW) 04:12:25 437.125 CW, 437.150 USB
Gurwin Techsat 1B 26 Oct 04:04:54 04:10:06 52° 100° (E) 04:15:16 435.225 FM
TMSAT-1 26 Oct 04:15:20 04:20:29 48° 99° (E) 04:25:35 436.925 FM
AO-7 26 Oct 04:21:12 04:26:07 17° 90° (E) 04:30:59 29.400 - 29.500 MHz
AO-27 26 Oct 04:23:45 04:28:53 56° 288° (WNW) 04:33:58 436.795 MHz FM
AO-Echo 26 Oct 04:33:49 04:38:37 35° 292° (WNW) 04:43:24 ?
Uosat F 26 Oct 04:43:30 04:45:15 12° 89° (E) 04:46:59 435.120 FM
Oscar 16 26 Oct 04:50:42 04:53:22 14° 300° (WNW) 04:56:02 437.025 USB, Beacon 2401.1428
Sapphire 26 Oct 04:54:35 04:59:59 73° 301° (WNW) 05:05:25 437.095 MHz 1200 baud AX-25 AFSK
Uribyol 2 26 Oct 05:11:44 05:15:34 21° 297° (WNW) 05:19:23 436.500 FM
PCSat 26 Oct 05:17:19 05:22:30 45° 306° (NW) 05:27:43 145.825 MHz
ITAMSAT 1 26 Oct 05:18:13 05:21:55 20° 297° (WNW) 05:25:36 435.822 SSB
OPAL 26 Oct 05:32:39 05:37:42 59° 70° (ENE) 05:42:42 ?
Gurwin Techsat 1B 26 Oct 05:45:47 05:49:40 21° 297° (WNW) 05:53:33 435.225 FM
TMSAT-1 26 Oct 05:56:01 06:00:03 23° 296° (WNW) 06:04:04 436.925 FM
JAS-1B 26 Oct 05:57:27 05:58:24 10° 306° (NW) 05:59:23 435.800 - 435.900 CW/SSB
JAS-2 26 Oct 06:01:08 06:07:42 29° 92° (E) 06:14:11 435.800 - 435.900 CW/SSB, 435.910 FM
RS-15 26 Oct 06:01:42 06:11:35 35° 35° (NE) 06:21:44 29.354 - 29.394 USB, Beacon 29.352 USB
AO-7 26 Oct 06:11:36 06:19:58 85° 108° (ESE) 06:28:20 29.400 - 29.500 MHz
Uosat F 26 Oct 06:19:32 06:24:36 79° 286° (WNW) 06:29:38 435.120 FM
Hamsat 26 Oct 06:37:15 06:40:35 22° 94° (E) 06:43:54 145.90 MHz
Sapphire 26 Oct 06:41:33 06:44:23 14° 321° (NW) 06:47:13 437.095 MHz 1200 baud AX-25 AFSK
OPAL 26 Oct 07:13:39 07:16:55 17° 266° (W) 07:20:11 ?
STRAND 1 26 Oct 07:19:18 07:24:22 64° 73° (ENE) 07:29:28 ?
Saudisat 1A 26 Oct 07:24:34 07:28:15 27° 114° (ESE) 07:31:58 436.775 MHz
JAS-2 26 Oct 07:45:23 07:53:04 63° 289° (WNW) 08:00:43 435.800 - 435.900 CW/SSB, 435.910 FM
Uosat F 26 Oct 08:01:48 08:02:31 10° 303° (WNW) 08:03:14 435.120 FM
AO-7 26 Oct 08:05:42 08:11:48 24° 307° (NW) 08:17:55 29.400 - 29.500 MHz
Hamsat 26 Oct 08:12:52 08:16:32 30° 290° (WNW) 08:20:12 145.90 MHz
RS-15 26 Oct 08:14:04 08:25:17 83° 240° (WSW) 08:36:59 29.354 - 29.394 USB, Beacon 29.352 USB
SO-67 26 Oct 08:25:54 08:29:16 48° 99° (E) 08:32:36 435.3500 MHz FM
PANSAT 26 Oct 09:00:13 09:01:39 12° 178° (S) 09:03:04 not established
STRAND 1 26 Oct 09:01:03 09:03:59 15° 269° (W) 09:06:57 ?
Saudisat 1A 26 Oct 09:03:43 09:07:42 33° 311° (NW) 09:11:43 436.775 MHz
HO-68 26 Oct 09:14:10 09:18:45 18° 90° (E) 09:23:18 435.675 MHz FM
JAS-2 26 Oct 09:32:58 09:36:38 14° 308° (NW) 09:40:19 435.800 - 435.900 CW/SSB, 435.910 FM
MaSat-1 26 Oct 09:59:07 10:01:39 57° 247° (WSW) 10:04:00 437.345 MHz
SO-67 26 Oct 10:01:43 10:01:47 10° 295° (WNW) 10:01:51 435.3500 MHz FM
RS-15 26 Oct 10:28:40 10:35:59 20° 260° (W) 10:43:32 29.354 - 29.394 USB, Beacon 29.352 USB
Oscar 11 26 Oct 10:33:24 10:36:49 23° 94° (E) 10:40:13 145.825 FM, Beacon 2401.500 USB
HO-68 26 Oct 11:00:00 11:07:13 83° 288° (WNW) 11:14:24 435.675 MHz FM
KITSAT 1 26 Oct 11:19:35 11:25:05 20° 102° (ESE) 11:30:34 435.175 FM
ZACube-1 26 Oct 11:26:49 11:30:45 36° 97° (E) 11:34:35 437.345 MHz
UKube-1 26 Oct 11:28:39 11:33:03 84° 285° (WNW) 11:37:24 145.840 MHz, 145.915 MHz
Oscar 10/S400 26 Oct 11:57:25 12:14:35 20° 152° (SSE) 12:27:00 145.825 - 145.975 CW/USB, Beacon 145.810 USB
Sapphire 26 Oct 12:00:21 12:03:47 17° 41° (NE) 12:07:13 437.095 MHz 1200 baud AX-25 AFSK
Oscar 11 26 Oct 12:09:13 12:13:01 31° 290° (WNW) 12:16:48 145.825 FM, Beacon 2401.500 USB
FUNcube-1 26 Oct 12:10:59 12:15:13 70° 285° (WNW) 12:19:21 145.950 - 145.970 MHz USB
PCSat 26 Oct 12:22:09 12:26:34 24° 47° (NE) 12:30:56 145.825 MHz
HO-68 26 Oct 12:49:33 12:53:52 17° 307° (NW) 12:58:10 435.675 MHz FM
Oscar 16 26 Oct 12:50:15 12:53:00 15° 60° (ENE) 12:55:43 437.025 USB, Beacon 2401.1428
JAS-1B 26 Oct 13:01:04 13:04:45 18° 60° (ENE) 13:08:23 435.800 - 435.900 CW/SSB
ZACube-1 26 Oct 13:03:52 13:06:53 19° 294° (WNW) 13:09:52 437.345 MHz
ISS 26 Oct 13:08:03 13:11:22 74° 142° (SE) 13:14:42 145.800 FM
KITSAT 1 26 Oct 13:11:23 13:19:29 84° 301° (WNW) 13:27:37 435.175 FM
Uribyol 2 26 Oct 13:14:53 13:15:52 11° 57° (ENE) 13:16:51 436.500 FM
SO-50 26 Oct 13:20:16 13:24:42 68° 120° (ESE) 13:29:18 436.795 FM
ITAMSAT 1 26 Oct 13:20:42 13:22:18 11° 57° (ENE) 13:23:53 435.822 SSB
Oscar 19 26 Oct 13:40:55 13:45:42 40° 69° (ENE) 13:50:28 437.125 CW, 437.150 USB
Sapphire 26 Oct 13:42:32 13:48:00 89° 61° (ENE) 13:53:25 437.095 MHz 1200 baud AX-25 AFSK
Gurwin Techsat 1B 26 Oct 13:50:33 13:52:14 12° 57° (ENE) 13:53:55 435.225 FM
TMSAT-1 26 Oct 14:01:27 14:02:23 10° 57° (ENE) 14:03:19 436.925 FM
AO-27 26 Oct 14:03:29 14:07:52 28° 66° (ENE) 14:12:18 436.795 MHz FM
PCSat 26 Oct 14:05:01 14:10:19 55° 246° (WSW) 14:15:34 145.825 MHz
AO-Echo 26 Oct 14:08:16 14:12:45 37° 69° (ENE) 14:17:23 ?
Oscar 16 26 Oct 14:26:33 14:31:42 76° 257° (WSW) 14:36:52 437.025 USB, Beacon 2401.1428
UOSAT-12 26 Oct 14:34:48 14:39:01 36° 115° (ESE) 14:43:19 437.025 FM, 437.400 FM
ISS 26 Oct 14:45:40 14:48:21 22° 341° (NNW) 14:51:03 145.800 FM
JAS-1B 26 Oct 14:49:04 14:54:57 63° 258° (WSW) 15:00:35 435.800 - 435.900 CW/SSB
Uribyol 2 26 Oct 14:49:14 14:54:26 77° 74° (ENE) 14:59:41 436.500 FM
ITAMSAT 1 26 Oct 14:55:43 15:00:56 83° 75° (ENE) 15:06:12 435.822 SSB
SO-50 26 Oct 15:02:35 15:05:45 18° 320° (NW) 15:08:59 436.795 FM
KITSAT 1 26 Oct 15:09:49 15:16:07 24° 324° (NW) 15:22:27 435.175 FM
AO-7 26 Oct 15:20:11 15:26:41 27° 55° (NE) 15:33:12 29.400 - 29.500 MHz
Oscar 19 26 Oct 15:20:59 15:25:09 24° 266° (W) 15:29:19 437.125 CW, 437.150 USB
Gurwin Techsat 1B 26 Oct 15:26:02 15:31:20 82° 75° (ENE) 15:36:41 435.225 FM
Sapphire 26 Oct 15:28:43 15:30:35 12° 258° (WSW) 15:32:27 437.095 MHz 1200 baud AX-25 AFSK
TMSAT-1 26 Oct 15:36:05 15:41:22 76° 74° (ENE) 15:46:42 436.925 FM
AO-27 26 Oct 15:42:27 15:47:14 36° 263° (W) 15:52:03 436.795 MHz FM
AO-Echo 26 Oct 15:47:33 15:51:35 25° 266° (W) 15:55:46 ?
Saudisat 1A 26 Oct 15:50:44 15:54:26 25° 46° (NE) 15:58:07 436.775 MHz
Uosat F 26 Oct 15:56:10 15:59:32 18° 62° (ENE) 16:02:54 435.120 FM
UOSAT-12 26 Oct 16:15:07 16:19:12 29° 313° (NW) 16:23:21 437.025 FM, 437.400 FM
JAS-2 26 Oct 16:17:53 16:19:40 11° 50° (NE) 16:21:30 435.800 - 435.900 CW/SSB, 435.910 FM
ISS 26 Oct 16:24:05 16:25:58 14° 1° (N) 16:27:51 145.800 FM
Uribyol 2 26 Oct 16:32:13 16:34:28 13° 271° (W) 16:36:44 436.500 FM
ITAMSAT 1 26 Oct 16:39:17 16:41:03 12° 271° (W) 16:42:49 435.822 SSB
Gurwin Techsat 1B 26 Oct 17:09:58 17:11:56 12° 271° (W) 17:13:53 435.225 FM
AO-7 26 Oct 17:10:27 17:18:43 74° 254° (WSW) 17:27:02 29.400 - 29.500 MHz
KITSAT 1 26 Oct 17:13:03 17:15:11 11° 353° (N) 17:17:19 435.175 FM
TMSAT-1 26 Oct 17:19:24 17:21:51 13° 271° (W) 17:24:19 436.925 FM
Saudisat 1A 26 Oct 17:29:59 17:34:07 39° 244° (WSW) 17:38:12 436.775 MHz
Hamsat 26 Oct 17:31:22 17:34:06 17° 66° (ENE) 17:36:51 145.90 MHz
Uosat F 26 Oct 17:32:56 17:37:51 57° 259° (W) 17:42:50 435.120 FM
OPAL 26 Oct 17:44:16 17:46:49 14° 93° (E) 17:49:21 ?
JAS-2 26 Oct 17:57:12 18:03:07 62° 71° (ENE) 18:09:53 435.800 - 435.900 CW/SSB, 435.910 FM
ISS 26 Oct 18:00:44 18:03:32 24° 21° (NNE) 18:06:20 145.800 FM
SO-67 26 Oct 18:59:27 19:01:42 17° 68° (ENE) 19:03:57 435.3500 MHz FM
Hamsat 26 Oct 19:05:46 19:09:44 41° 262° (W) 19:13:43 145.90 MHz
AO-7 26 Oct 19:09:15 19:12:48 13° 272° (W) 19:16:23 29.400 - 29.500 MHz
KITSAT 1 26 Oct 19:10:08 19:14:52 16° 25° (NNE) 19:19:36 435.175 FM
OPAL 26 Oct 19:21:13 19:26:09 66° 289° (WNW) 19:31:02 ?
STRAND 1 26 Oct 19:30:41 19:34:36 21° 93° (E) 19:38:28 ?
ISS 26 Oct 19:37:09 19:40:27 61° 219° (SW) 19:43:44 145.800 FM
